Location: Planetariul Baia Mare
(47.6578°N, 23.5640°E)
Time: 06:17:37
(UTC+03:00)

ISS - Pass Details

Date: 31 March 2016
Orbit: 411 x 421 km, 51.6° (Epoch: 20 October)

Event Time Altitude Azimuth Distance (km) Brightness Sun altitude
Rises 20:33:46 0° 290° (WNW) 2,353 2.6 -7.3°
Reaches altitude 10° 20:36:02 10° 278° (W) 1,483 0.7 -7.7°
Maximum altitude 20:38:54 27° 218° (SW) 818 -2.0 -8.1°
Drops below altitude 10° 20:41:46 10° 158° (SSE) 1,476 -1.3 -8.6°
Enters shadow 20:42:49 - 151° (SSE) 1,866 -0.9 -8.8°
